Year,Month,Day,Hour,Minute,Value (Times are PST for temperature in C)
2017,10,24,00,00,11.20
2017,10,24,00,01,11.20
2017,10,24,00,02,11.20
2017,10,24,00,03,11.20
2017,10,24,00,04,11.20
2017,10,24,00,05,11.20
2017,10,24,00,06,11.20
2017,10,24,00,07,11.10
2017,10,24,00,08,11.10
2017,10,24,00,09,11.10
2017,10,24,00,10,11.10
2017,10,24,00,11,11.10
2017,10,24,00,12,11.10
2017,10,24,00,13,11.10
2017,10,24,00,14,11.00
2017,10,24,00,15,10.90
2017,10,24,00,16,10.90
2017,10,24,00,17,10.90
2017,10,24,00,18,10.90
2017,10,24,00,19,10.90
2017,10,24,00,20,10.90
2017,10,24,00,21,10.90
2017,10,24,00,22,10.90
2017,10,24,00,23,10.90
2017,10,24,00,24,10.90
2017,10,24,00,25,10.90
2017,10,24,00,26,10.90
2017,10,24,00,27,10.90
2017,10,24,00,28,10.90
2017,10,24,00,29,10.90
2017,10,24,00,30,10.90
2017,10,24,00,31,10.90
2017,10,24,00,32,10.90
2017,10,24,00,33,10.90
2017,10,24,00,34,10.90
2017,10,24,00,35,10.90
2017,10,24,00,36,10.90
2017,10,24,00,37,10.90
2017,10,24,00,38,10.90
2017,10,24,00,39,10.90
2017,10,24,00,40,10.90
2017,10,24,00,41,10.90
2017,10,24,00,42,10.90
2017,10,24,00,43,10.90
2017,10,24,00,44,10.90
2017,10,24,00,45,10.90
2017,10,24,00,46,10.90
2017,10,24,00,47,10.90
2017,10,24,00,48,10.90
2017,10,24,00,49,10.90
2017,10,24,00,50,10.90
2017,10,24,00,51,10.90
2017,10,24,00,52,10.80
2017,10,24,00,53,10.80
2017,10,24,00,54,10.80
2017,10,24,00,55,10.80
2017,10,24,00,56,10.80
2017,10,24,00,57,10.80
2017,10,24,00,58,10.80
2017,10,24,00,59,10.80
2017,10,24,01,00,10.80
2017,10,24,01,01,10.80
2017,10,24,01,02,10.80
2017,10,24,01,03,10.80
2017,10,24,01,04,10.80
2017,10,24,01,05,10.80
2017,10,24,01,06,10.80
2017,10,24,01,07,10.80
2017,10,24,01,08,10.80
2017,10,24,01,09,10.80
2017,10,24,01,10,10.80
2017,10,24,01,11,10.70
2017,10,24,01,12,10.70
2017,10,24,01,13,10.60
2017,10,24,01,14,10.60
2017,10,24,01,15,10.60
2017,10,24,01,16,10.50
2017,10,24,01,17,10.40
2017,10,24,01,18,10.40
2017,10,24,01,19,10.40
2017,10,24,01,20,10.30
2017,10,24,01,21,10.20
2017,10,24,01,22,10.20
2017,10,24,01,23,10.20
2017,10,24,01,24,10.20
2017,10,24,01,25,10.20
2017,10,24,01,26,10.20
2017,10,24,01,27,10.20
2017,10,24,01,28,10.20
2017,10,24,01,29,10.20
2017,10,24,01,30,10.10
2017,10,24,01,31,10.10
2017,10,24,01,32,10.10
2017,10,24,01,33,10.00
2017,10,24,01,34,9.90
2017,10,24,01,35,9.90
2017,10,24,01,36,9.90
2017,10,24,01,37,9.90
2017,10,24,01,38,9.90
2017,10,24,01,39,9.80
2017,10,24,01,40,9.80
2017,10,24,01,41,9.80
2017,10,24,01,42,9.80
2017,10,24,01,43,9.80
2017,10,24,01,44,9.70
2017,10,24,01,45,9.70
2017,10,24,01,46,9.70
2017,10,24,01,47,9.70
2017,10,24,01,48,9.70
2017,10,24,01,49,9.70
2017,10,24,01,50,9.70
2017,10,24,01,51,9.70
2017,10,24,01,52,9.70
2017,10,24,01,53,9.70
2017,10,24,01,54,9.80
2017,10,24,01,55,9.80
2017,10,24,01,56,9.80
2017,10,24,01,57,9.90
2017,10,24,01,58,9.90
2017,10,24,01,59,9.90
2017,10,24,02,00,9.80
2017,10,24,02,01,9.80
2017,10,24,02,02,9.70
2017,10,24,02,03,9.70
2017,10,24,02,04,9.70
2017,10,24,02,05,9.60
2017,10,24,02,06,9.60
2017,10,24,02,07,9.60
2017,10,24,02,08,9.50
2017,10,24,02,09,9.50
2017,10,24,02,10,9.40
2017,10,24,02,11,9.40
2017,10,24,02,12,9.40
2017,10,24,02,13,9.30
2017,10,24,02,14,9.30
2017,10,24,02,15,9.20
2017,10,24,02,16,9.20
2017,10,24,02,17,9.20
2017,10,24,02,18,9.20
2017,10,24,02,19,9.20
2017,10,24,02,20,9.20
2017,10,24,02,21,9.10
2017,10,24,02,22,9.10
2017,10,24,02,23,9.00
2017,10,24,02,24,9.00
2017,10,24,02,25,9.00
2017,10,24,02,26,8.90
2017,10,24,02,27,8.90
2017,10,24,02,28,8.90
2017,10,24,02,29,8.90
2017,10,24,02,30,8.90
2017,10,24,02,31,9.00
2017,10,24,02,32,9.00
2017,10,24,02,33,9.00
2017,10,24,02,34,9.00
2017,10,24,02,35,9.00
2017,10,24,02,36,9.00
2017,10,24,02,37,9.00
2017,10,24,02,38,9.00
2017,10,24,02,39,9.00
2017,10,24,02,40,9.10
2017,10,24,02,41,9.00
2017,10,24,02,42,9.00
2017,10,24,02,43,9.00
2017,10,24,02,44,8.90
2017,10,24,02,45,8.90
2017,10,24,02,46,8.90
2017,10,24,02,47,8.90
2017,10,24,02,48,8.90
2017,10,24,02,49,8.90
2017,10,24,02,50,8.90
2017,10,24,02,51,9.00
2017,10,24,02,52,9.00
2017,10,24,02,53,9.00
2017,10,24,02,54,9.00
2017,10,24,02,55,9.00
2017,10,24,02,56,9.00
2017,10,24,02,57,8.90
2017,10,24,02,58,8.90
2017,10,24,02,59,8.90
2017,10,24,03,00,9.00
2017,10,24,03,01,9.00
2017,10,24,03,02,9.00
2017,10,24,03,03,9.00
2017,10,24,03,04,9.00
2017,10,24,03,05,9.00
2017,10,24,03,06,8.90
2017,10,24,03,07,8.90
2017,10,24,03,08,8.80
2017,10,24,03,09,8.70
2017,10,24,03,10,8.70
2017,10,24,03,11,8.70
2017,10,24,03,12,8.70
2017,10,24,03,13,8.70
2017,10,24,03,14,8.70
2017,10,24,03,15,8.70
2017,10,24,03,16,8.70
2017,10,24,03,17,8.70
2017,10,24,03,18,8.70
2017,10,24,03,19,8.70
2017,10,24,03,20,8.80
2017,10,24,03,21,8.80
2017,10,24,03,22,8.80
2017,10,24,03,23,8.80
2017,10,24,03,24,8.80
2017,10,24,03,25,8.90
2017,10,24,03,26,8.90
2017,10,24,03,27,8.90
2017,10,24,03,28,8.90
2017,10,24,03,29,9.00
2017,10,24,03,30,9.00
2017,10,24,03,31,9.00
2017,10,24,03,32,9.00
2017,10,24,03,33,8.90
2017,10,24,03,34,8.90
2017,10,24,03,35,8.90
2017,10,24,03,36,8.80
2017,10,24,03,37,8.80
2017,10,24,03,38,8.70
2017,10,24,03,39,8.70
2017,10,24,03,40,8.70
2017,10,24,03,41,8.70
2017,10,24,03,42,8.60
2017,10,24,03,43,8.60
2017,10,24,03,44,8.60
2017,10,24,03,45,8.60
2017,10,24,03,46,8.60
2017,10,24,03,47,8.60
2017,10,24,03,48,8.60
2017,10,24,03,49,8.60
2017,10,24,03,50,8.60
2017,10,24,03,51,8.60
2017,10,24,03,52,8.60
2017,10,24,03,53,8.60
2017,10,24,03,54,8.60
2017,10,24,03,55,8.60
2017,10,24,03,56,8.60
2017,10,24,03,57,8.70
2017,10,24,03,58,8.70
2017,10,24,03,59,8.70
2017,10,24,04,00,8.70
2017,10,24,04,01,8.70
2017,10,24,04,02,8.70
2017,10,24,04,03,8.70
2017,10,24,04,04,8.80
2017,10,24,04,05,8.90
2017,10,24,04,06,8.90
2017,10,24,04,07,9.00
2017,10,24,04,08,9.00
2017,10,24,04,09,9.00
2017,10,24,04,10,9.10
2017,10,24,04,11,9.10
2017,10,24,04,12,9.00
2017,10,24,04,13,9.00
2017,10,24,04,14,8.90
2017,10,24,04,15,8.90
2017,10,24,04,16,8.80
2017,10,24,04,17,8.70
2017,10,24,04,18,8.70
2017,10,24,04,19,8.70
2017,10,24,04,20,8.70
2017,10,24,04,21,8.60
2017,10,24,04,22,8.50
2017,10,24,04,23,8.50
2017,10,24,04,24,8.40
2017,10,24,04,25,8.30
2017,10,24,04,26,8.30
2017,10,24,04,27,8.20
2017,10,24,04,28,8.20
2017,10,24,04,29,8.20
2017,10,24,04,30,8.20
2017,10,24,04,31,8.20
2017,10,24,04,32,8.20
2017,10,24,04,33,8.20
2017,10,24,04,34,8.20
2017,10,24,04,35,8.20
2017,10,24,04,36,8.20
2017,10,24,04,37,8.20
2017,10,24,04,38,8.20
2017,10,24,04,39,8.20
2017,10,24,04,40,8.20
2017,10,24,04,41,8.20
2017,10,24,04,42,8.30
2017,10,24,04,43,8.30
2017,10,24,04,44,8.30
2017,10,24,04,45,8.30
2017,10,24,04,46,8.30
2017,10,24,04,47,8.20
2017,10,24,04,48,8.20
2017,10,24,04,49,8.20
2017,10,24,04,50,8.20
2017,10,24,04,51,8.30
2017,10,24,04,52,8.30
2017,10,24,04,53,8.30
2017,10,24,04,54,8.30
2017,10,24,04,55,8.30
2017,10,24,04,56,8.20
2017,10,24,04,57,8.20
2017,10,24,04,58,8.20
2017,10,24,04,59,8.10
2017,10,24,05,00,8.10
2017,10,24,05,01,8.00
2017,10,24,05,02,8.00
2017,10,24,05,03,8.00
2017,10,24,05,04,8.00
2017,10,24,05,05,8.00
2017,10,24,05,06,8.00
2017,10,24,05,07,8.10
2017,10,24,05,08,8.10
2017,10,24,05,09,8.10
2017,10,24,05,10,8.00
2017,10,24,05,11,8.00
2017,10,24,05,12,8.00
2017,10,24,05,13,8.00
2017,10,24,05,14,8.00
2017,10,24,05,15,8.00
2017,10,24,05,16,8.00
2017,10,24,05,17,8.00
2017,10,24,05,18,8.00
2017,10,24,05,19,8.00
2017,10,24,05,20,8.10
2017,10,24,05,21,8.10
2017,10,24,05,22,8.10
2017,10,24,05,23,8.00
2017,10,24,05,24,8.00
2017,10,24,05,25,7.90
2017,10,24,05,26,7.90
2017,10,24,05,27,7.90
2017,10,24,05,28,7.90
2017,10,24,05,29,7.90
2017,10,24,05,30,7.90
2017,10,24,05,31,7.90
2017,10,24,05,32,7.90
2017,10,24,05,33,7.90
2017,10,24,05,34,7.90
2017,10,24,05,35,7.90
2017,10,24,05,36,7.90
2017,10,24,05,37,7.80
2017,10,24,05,38,7.80
2017,10,24,05,39,7.80
2017,10,24,05,40,7.70
2017,10,24,05,41,7.70
2017,10,24,05,42,7.60
2017,10,24,05,43,7.60
2017,10,24,05,44,7.60
2017,10,24,05,45,7.60
2017,10,24,05,46,7.60
2017,10,24,05,47,7.60
2017,10,24,05,48,7.60
2017,10,24,05,49,7.50
2017,10,24,05,50,7.50
2017,10,24,05,51,7.50
2017,10,24,05,52,7.50
2017,10,24,05,53,7.50
2017,10,24,05,54,7.40
2017,10,24,05,55,7.40
2017,10,24,05,56,7.50
2017,10,24,05,57,7.50
2017,10,24,05,58,7.50
2017,10,24,05,59,7.50
2017,10,24,06,00,7.50
2017,10,24,06,01,7.50
2017,10,24,06,02,7.50
2017,10,24,06,03,7.50
2017,10,24,06,04,7.50
2017,10,24,06,05,7.50
2017,10,24,06,06,7.50
2017,10,24,06,07,7.60
2017,10,24,06,08,7.60
2017,10,24,06,09,7.60
2017,10,24,06,10,7.60
2017,10,24,06,11,7.60
2017,10,24,06,12,7.60
2017,10,24,06,13,7.60
2017,10,24,06,14,7.60
2017,10,24,06,15,7.60
2017,10,24,06,16,7.60
2017,10,24,06,17,7.60
2017,10,24,06,18,7.60
2017,10,24,06,19,7.60
2017,10,24,06,20,7.60
2017,10,24,06,21,7.60
2017,10,24,06,22,7.60
2017,10,24,06,23,7.60
2017,10,24,06,24,7.60
2017,10,24,06,25,7.50
2017,10,24,06,26,7.50
2017,10,24,06,27,7.50
2017,10,24,06,28,7.50
2017,10,24,06,29,7.50
2017,10,24,06,30,7.50
2017,10,24,06,31,7.60
2017,10,24,06,32,7.60
2017,10,24,06,33,7.70
2017,10,24,06,34,7.80
2017,10,24,06,35,7.70
2017,10,24,06,36,7.70
2017,10,24,06,37,7.70
2017,10,24,06,38,7.70
2017,10,24,06,39,7.70
2017,10,24,06,40,7.70
2017,10,24,06,41,7.80
2017,10,24,06,42,7.70
2017,10,24,06,43,7.70
2017,10,24,06,44,7.70
2017,10,24,06,45,7.70
2017,10,24,06,46,7.70
2017,10,24,06,47,7.70
2017,10,24,06,48,7.70
2017,10,24,06,49,7.70
2017,10,24,06,50,7.70
2017,10,24,06,51,7.70
2017,10,24,06,52,7.70
2017,10,24,06,53,7.60
2017,10,24,06,54,7.60
2017,10,24,06,55,7.50
2017,10,24,06,56,7.50
2017,10,24,06,57,7.50
2017,10,24,06,58,7.50
2017,10,24,06,59,7.50
2017,10,24,07,00,7.50
2017,10,24,07,01,7.50
2017,10,24,07,02,7.50
2017,10,24,07,03,7.60
2017,10,24,07,04,7.60
2017,10,24,07,05,7.60
2017,10,24,07,06,7.60
2017,10,24,07,07,7.60
2017,10,24,07,08,7.60
2017,10,24,07,09,7.60
2017,10,24,07,10,7.60
2017,10,24,07,11,7.60
2017,10,24,07,12,7.60
2017,10,24,07,13,7.60
2017,10,24,07,14,7.60
2017,10,24,07,15,7.60
2017,10,24,07,16,7.60
2017,10,24,07,17,7.50
2017,10,24,07,18,7.50
2017,10,24,07,19,7.50
2017,10,24,07,20,7.40
2017,10,24,07,21,7.40
2017,10,24,07,22,7.30
2017,10,24,07,23,7.30
2017,10,24,07,24,7.30
2017,10,24,07,25,7.20
2017,10,24,07,26,7.20
2017,10,24,07,27,7.10
2017,10,24,07,28,7.10
2017,10,24,07,29,7.10
2017,10,24,07,30,7.00
2017,10,24,07,31,7.00
2017,10,24,07,32,7.00
2017,10,24,07,33,6.90
2017,10,24,07,34,6.90
2017,10,24,07,35,6.80
2017,10,24,07,36,6.80
2017,10,24,07,37,6.80
2017,10,24,07,38,6.80
2017,10,24,07,39,6.80
2017,10,24,07,40,6.80
2017,10,24,07,41,6.80
2017,10,24,07,42,6.90
2017,10,24,07,43,7.00
2017,10,24,07,44,7.00
2017,10,24,07,45,7.00
2017,10,24,07,46,7.10
2017,10,24,07,47,7.10
2017,10,24,07,48,7.10
2017,10,24,07,49,7.10
2017,10,24,07,50,7.10
2017,10,24,07,51,7.10
2017,10,24,07,52,7.10
2017,10,24,07,53,7.10
2017,10,24,07,54,7.10
2017,10,24,07,55,7.10
2017,10,24,07,56,7.10
2017,10,24,07,57,7.10
2017,10,24,07,58,7.10
2017,10,24,07,59,7.00
2017,10,24,08,00,7.00
2017,10,24,08,01,7.00
2017,10,24,08,02,7.00
2017,10,24,08,03,7.00
2017,10,24,08,04,7.10
2017,10,24,08,05,7.10
2017,10,24,08,06,7.20
2017,10,24,08,07,7.20
2017,10,24,08,08,7.20
2017,10,24,08,09,7.20
2017,10,24,08,10,7.20
2017,10,24,08,11,7.20
2017,10,24,08,12,7.10
2017,10,24,08,13,7.10
2017,10,24,08,14,7.10
2017,10,24,08,15,7.10
2017,10,24,08,16,7.10
2017,10,24,08,17,7.10
2017,10,24,08,18,7.10
2017,10,24,08,19,7.10
2017,10,24,08,20,7.10
2017,10,24,08,21,7.10
2017,10,24,08,22,7.20
2017,10,24,08,23,7.20
2017,10,24,08,24,7.20
2017,10,24,08,25,7.20
2017,10,24,08,26,7.30
2017,10,24,08,27,7.30
2017,10,24,08,28,7.30
2017,10,24,08,29,7.30
2017,10,24,08,30,7.30
2017,10,24,08,31,7.30
2017,10,24,08,32,7.30
2017,10,24,08,33,7.30
2017,10,24,08,34,7.30
2017,10,24,08,35,7.30
2017,10,24,08,36,7.30
2017,10,24,08,37,7.30
2017,10,24,08,38,7.40
2017,10,24,08,39,7.40
2017,10,24,08,40,7.40
2017,10,24,08,41,7.50
2017,10,24,08,42,7.60
2017,10,24,08,43,7.60
2017,10,24,08,44,7.70
2017,10,24,08,45,7.80
2017,10,24,08,46,7.80
2017,10,24,08,47,7.80
2017,10,24,08,48,7.80
2017,10,24,08,49,7.90
2017,10,24,08,50,7.90
2017,10,24,08,51,7.90
2017,10,24,08,52,8.00
2017,10,24,08,53,8.00
2017,10,24,08,54,8.00
2017,10,24,08,55,8.00
2017,10,24,08,56,8.00
2017,10,24,08,57,8.00
2017,10,24,08,58,8.10
2017,10,24,08,59,8.10
2017,10,24,09,00,8.20
2017,10,24,09,01,8.20
2017,10,24,09,02,8.20
2017,10,24,09,03,8.20
2017,10,24,09,04,8.30
2017,10,24,09,05,8.30
2017,10,24,09,06,8.30
2017,10,24,09,07,8.30
2017,10,24,09,08,8.40
2017,10,24,09,09,8.40
2017,10,24,09,10,8.40
2017,10,24,09,11,8.50
2017,10,24,09,12,8.50
2017,10,24,09,13,8.60
2017,10,24,09,14,8.60
2017,10,24,09,15,8.70
2017,10,24,09,16,8.70
2017,10,24,09,17,8.70
2017,10,24,09,18,8.70
2017,10,24,09,19,8.80
2017,10,24,09,20,8.80
2017,10,24,09,21,8.90
2017,10,24,09,22,8.90
2017,10,24,09,23,9.00
2017,10,24,09,24,9.00
2017,10,24,09,25,9.00
2017,10,24,09,26,9.10
2017,10,24,09,27,9.10
2017,10,24,09,28,9.20
2017,10,24,09,29,9.20
2017,10,24,09,30,9.20
2017,10,24,09,31,9.30
2017,10,24,09,32,9.40
2017,10,24,09,33,9.40
2017,10,24,09,34,9.50
2017,10,24,09,35,9.50
2017,10,24,09,36,9.50
2017,10,24,09,37,9.60
2017,10,24,09,38,9.60
2017,10,24,09,39,9.60
2017,10,24,09,40,9.70
2017,10,24,09,41,9.70
2017,10,24,09,42,9.70
2017,10,24,09,43,9.70
2017,10,24,09,44,9.80
2017,10,24,09,45,9.80
2017,10,24,09,46,9.80
2017,10,24,09,47,9.90
2017,10,24,09,48,9.90
2017,10,24,09,49,9.90
2017,10,24,09,50,9.90
2017,10,24,09,51,9.90
2017,10,24,09,52,10.00
2017,10,24,09,53,10.10
2017,10,24,09,54,10.10
2017,10,24,09,55,10.10
2017,10,24,09,56,10.10
2017,10,24,09,57,10.20
2017,10,24,09,58,10.20
2017,10,24,09,59,10.20
2017,10,24,10,00,10.30
2017,10,24,10,01,10.30
2017,10,24,10,02,10.40
2017,10,24,10,03,10.40
2017,10,24,10,04,10.40
2017,10,24,10,05,10.50
2017,10,24,10,06,10.60
2017,10,24,10,07,10.60
2017,10,24,10,08,10.60
2017,10,24,10,09,10.60
2017,10,24,10,10,10.70
2017,10,24,10,11,10.70
2017,10,24,10,12,10.80
2017,10,24,10,13,10.80
2017,10,24,10,14,10.80
2017,10,24,10,15,10.90
2017,10,24,10,16,10.90
2017,10,24,10,17,10.90
2017,10,24,10,18,10.90
2017,10,24,10,19,10.90
2017,10,24,10,20,10.90
2017,10,24,10,21,11.10
2017,10,24,10,22,11.10
2017,10,24,10,23,11.10
2017,10,24,10,24,11.20
2017,10,24,10,25,11.20
2017,10,24,10,26,11.20
2017,10,24,10,27,11.30
2017,10,24,10,28,11.30
2017,10,24,10,29,11.30
2017,10,24,10,30,11.40
2017,10,24,10,31,11.40
2017,10,24,10,32,11.40
2017,10,24,10,33,11.40
2017,10,24,10,34,11.60
2017,10,24,10,35,11.60
2017,10,24,10,36,11.60
2017,10,24,10,37,11.60
2017,10,24,10,38,11.60
2017,10,24,10,39,11.60
2017,10,24,10,40,11.60
2017,10,24,10,41,11.70
2017,10,24,10,42,11.70
2017,10,24,10,43,11.80
2017,10,24,10,44,11.80
2017,10,24,10,45,11.80
2017,10,24,10,46,11.80
2017,10,24,10,47,11.90
2017,10,24,10,48,12.00
2017,10,24,10,49,12.00
2017,10,24,10,50,12.00
2017,10,24,10,51,12.10
2017,10,24,10,52,12.10
2017,10,24,10,53,12.20
2017,10,24,10,54,12.30
2017,10,24,10,55,12.30
2017,10,24,10,56,12.30
2017,10,24,10,57,12.30
2017,10,24,10,58,12.40
2017,10,24,10,59,12.50
2017,10,24,11,00,12.60
2017,10,24,11,01,12.60
2017,10,24,11,02,12.80
2017,10,24,11,03,12.80
2017,10,24,11,04,12.90
2017,10,24,11,05,12.90
2017,10,24,11,06,12.90
2017,10,24,11,07,12.90
2017,10,24,11,08,13.00
2017,10,24,11,09,13.00
2017,10,24,11,10,13.00
2017,10,24,11,11,13.10
2017,10,24,11,12,13.20
2017,10,24,11,13,13.20
2017,10,24,11,14,13.10
2017,10,24,11,15,13.10
2017,10,24,11,16,13.10
2017,10,24,11,17,13.10
2017,10,24,11,18,13.20
2017,10,24,11,19,13.20
2017,10,24,11,20,13.20
2017,10,24,11,21,13.30
2017,10,24,11,22,13.30
2017,10,24,11,23,13.40
2017,10,24,11,24,13.50
2017,10,24,11,25,13.50
2017,10,24,11,26,13.50
2017,10,24,11,27,13.60
2017,10,24,11,28,13.60
2017,10,24,11,29,13.60
2017,10,24,11,30,13.60
2017,10,24,11,31,13.60
2017,10,24,11,32,13.50
2017,10,24,11,33,13.50
2017,10,24,11,34,13.50
2017,10,24,11,35,13.50
2017,10,24,11,36,13.40
2017,10,24,11,37,13.40
2017,10,24,11,38,13.50
2017,10,24,11,39,13.50
2017,10,24,11,40,13.50
2017,10,24,11,41,13.50
2017,10,24,11,42,13.50
2017,10,24,11,43,13.60
2017,10,24,11,44,13.60
2017,10,24,11,45,13.60
2017,10,24,11,46,13.70
2017,10,24,11,47,13.70
2017,10,24,11,48,13.70
2017,10,24,11,49,13.70
2017,10,24,11,50,13.70
2017,10,24,11,51,13.80
2017,10,24,11,52,13.80
2017,10,24,11,53,13.90
2017,10,24,11,54,13.90
2017,10,24,11,55,13.90
2017,10,24,11,56,14.00
2017,10,24,11,57,14.00
2017,10,24,11,58,13.90
2017,10,24,11,59,13.90
2017,10,24,12,00,14.00
2017,10,24,12,01,14.00
2017,10,24,12,02,14.00
2017,10,24,12,03,14.10
2017,10,24,12,04,14.10
2017,10,24,12,05,14.10
2017,10,24,12,06,14.10
2017,10,24,12,07,14.10
2017,10,24,12,08,14.10
2017,10,24,12,09,14.10
2017,10,24,12,10,14.10
2017,10,24,12,11,14.10
2017,10,24,12,12,14.20
2017,10,24,12,13,14.20
2017,10,24,12,14,14.20
2017,10,24,12,15,14.20
2017,10,24,12,16,14.20
2017,10,24,12,17,14.20
2017,10,24,12,18,14.30
2017,10,24,12,19,14.30
2017,10,24,12,20,14.40
2017,10,24,12,21,14.40
2017,10,24,12,22,14.40
2017,10,24,12,23,14.50
2017,10,24,12,24,14.50
2017,10,24,12,25,14.60
2017,10,24,12,26,14.60
2017,10,24,12,27,14.70
2017,10,24,12,28,14.70
2017,10,24,12,29,14.80
2017,10,24,12,30,14.80
2017,10,24,12,31,14.80
2017,10,24,12,32,14.90
2017,10,24,12,33,14.90
2017,10,24,12,34,15.00
2017,10,24,12,35,15.00
2017,10,24,12,36,15.00
2017,10,24,12,37,15.10
2017,10,24,12,38,15.00
2017,10,24,12,39,15.00
2017,10,24,12,40,14.90
2017,10,24,12,41,14.80
2017,10,24,12,42,14.80
2017,10,24,12,43,14.80
2017,10,24,12,44,14.80
2017,10,24,12,45,14.80
2017,10,24,12,46,14.80
2017,10,24,12,47,14.80
2017,10,24,12,48,14.80
2017,10,24,12,49,14.80
2017,10,24,12,50,14.80
2017,10,24,12,51,14.80
2017,10,24,12,52,14.80
2017,10,24,12,53,14.80
2017,10,24,12,54,14.80
2017,10,24,12,55,14.80
2017,10,24,12,56,14.80
2017,10,24,12,57,14.80
2017,10,24,12,58,14.80
2017,10,24,12,59,14.80
2017,10,24,13,00,14.80
2017,10,24,13,01,14.80
2017,10,24,13,02,14.80
2017,10,24,13,03,14.80
2017,10,24,13,04,14.80
2017,10,24,13,05,14.80
2017,10,24,13,06,14.90
2017,10,24,13,07,14.90
2017,10,24,13,08,14.90
2017,10,24,13,09,14.90
2017,10,24,13,10,14.90
2017,10,24,13,11,15.00
2017,10,24,13,12,15.00
2017,10,24,13,13,15.10
2017,10,24,13,14,15.10
2017,10,24,13,15,15.20
2017,10,24,13,16,15.30
2017,10,24,13,17,15.30
2017,10,24,13,18,15.30
2017,10,24,13,19,15.30
2017,10,24,13,20,15.30
2017,10,24,13,21,15.50
2017,10,24,13,22,15.50
2017,10,24,13,23,15.60
2017,10,24,13,24,15.70
2017,10,24,13,25,15.80
2017,10,24,13,26,15.80
2017,10,24,13,27,15.80
2017,10,24,13,28,15.80
2017,10,24,13,29,15.90
2017,10,24,13,30,15.90
2017,10,24,13,31,15.90
2017,10,24,13,32,16.00
2017,10,24,13,33,16.10
2017,10,24,13,34,16.20
2017,10,24,13,35,16.30
2017,10,24,13,36,16.30
2017,10,24,13,37,16.30
2017,10,24,13,38,16.30
2017,10,24,13,39,16.30
2017,10,24,13,40,16.30
2017,10,24,13,41,16.30
2017,10,24,13,42,16.20
2017,10,24,13,43,16.20
2017,10,24,13,44,16.10
2017,10,24,13,45,16.00
2017,10,24,13,46,15.90
2017,10,24,13,47,15.80
2017,10,24,13,48,15.80
2017,10,24,13,49,15.80
2017,10,24,13,50,15.70
2017,10,24,13,51,15.70
2017,10,24,13,52,15.60
2017,10,24,13,53,15.60
2017,10,24,13,54,15.50
2017,10,24,13,55,15.50
2017,10,24,13,56,15.50
2017,10,24,13,57,15.50
2017,10,24,13,58,15.40
2017,10,24,13,59,15.40
2017,10,24,14,00,15.40
2017,10,24,14,01,15.40
2017,10,24,14,02,15.40
2017,10,24,14,03,15.40
2017,10,24,14,04,15.40
2017,10,24,14,05,15.30
2017,10,24,14,06,15.30
2017,10,24,14,07,15.30
2017,10,24,14,08,15.40
2017,10,24,14,09,15.40
2017,10,24,14,10,15.40
2017,10,24,14,11,15.40
2017,10,24,14,12,15.50
2017,10,24,14,13,15.50
2017,10,24,14,14,15.60
2017,10,24,14,15,15.60
2017,10,24,14,16,15.70
2017,10,24,14,17,15.80
2017,10,24,14,18,15.80
2017,10,24,14,19,15.80
2017,10,24,14,20,15.80
2017,10,24,14,21,15.80
2017,10,24,14,22,15.80
2017,10,24,14,23,15.80
2017,10,24,14,24,15.80
2017,10,24,14,25,15.80
2017,10,24,14,26,15.80
2017,10,24,14,27,15.80
2017,10,24,14,28,15.80
2017,10,24,14,29,15.80
2017,10,24,14,30,15.80
2017,10,24,14,31,15.80
2017,10,24,14,32,15.80
2017,10,24,14,33,15.80
2017,10,24,14,34,15.80
2017,10,24,14,35,15.80
2017,10,24,14,36,15.80
2017,10,24,14,37,15.80
2017,10,24,14,38,15.80
2017,10,24,14,39,15.80
2017,10,24,14,40,15.80
2017,10,24,14,41,15.80
2017,10,24,14,42,15.80
2017,10,24,14,43,15.80
2017,10,24,14,44,15.80
2017,10,24,14,45,15.80
2017,10,24,14,46,15.80
2017,10,24,14,47,15.80
2017,10,24,14,48,15.80
2017,10,24,14,49,15.80
2017,10,24,14,50,15.80
2017,10,24,14,51,15.80
2017,10,24,14,52,15.80
2017,10,24,14,53,15.80
2017,10,24,14,54,15.80
2017,10,24,14,55,15.90
2017,10,24,14,56,15.90
2017,10,24,14,57,16.00
2017,10,24,14,58,16.10
2017,10,24,14,59,16.10
2017,10,24,15,00,16.10
2017,10,24,15,01,16.10
2017,10,24,15,02,16.10
2017,10,24,15,03,16.10
2017,10,24,15,04,16.10
2017,10,24,15,05,16.10
2017,10,24,15,06,16.10
2017,10,24,15,07,16.10
2017,10,24,15,08,16.10
2017,10,24,15,09,16.10
2017,10,24,15,10,16.10
2017,10,24,15,11,16.10
2017,10,24,15,12,16.10
2017,10,24,15,13,16.10
2017,10,24,15,14,16.10
2017,10,24,15,15,16.10
2017,10,24,15,16,16.20
2017,10,24,15,17,16.20
2017,10,24,15,18,16.20
2017,10,24,15,19,16.20
2017,10,24,15,20,16.20
2017,10,24,15,21,16.10
2017,10,24,15,22,16.10
2017,10,24,15,23,16.10
2017,10,24,15,24,16.10
2017,10,24,15,25,16.10
2017,10,24,15,26,16.10
2017,10,24,15,27,16.10
2017,10,24,15,28,16.10
2017,10,24,15,29,16.10
2017,10,24,15,30,16.10
2017,10,24,15,31,16.10
2017,10,24,15,32,16.10
2017,10,24,15,33,16.10
2017,10,24,15,34,16.10
2017,10,24,15,35,16.10
2017,10,24,15,36,16.10
2017,10,24,15,37,16.10
2017,10,24,15,38,16.20
2017,10,24,15,39,16.20
2017,10,24,15,40,16.20
2017,10,24,15,41,16.20
2017,10,24,15,42,16.20
2017,10,24,15,43,16.20
2017,10,24,15,44,16.20
2017,10,24,15,45,16.20
2017,10,24,15,46,16.20
2017,10,24,15,47,16.10
2017,10,24,15,48,16.10
2017,10,24,15,49,15.90
2017,10,24,15,50,15.80
2017,10,24,15,51,15.80
2017,10,24,15,52,15.70
2017,10,24,15,53,15.60
2017,10,24,15,54,15.50
2017,10,24,15,55,15.40
2017,10,24,15,56,15.30
2017,10,24,15,57,15.30
2017,10,24,15,58,15.20
2017,10,24,15,59,15.10
2017,10,24,16,00,15.10
2017,10,24,16,01,15.00
2017,10,24,16,02,15.00
2017,10,24,16,03,14.90
2017,10,24,16,04,14.80
2017,10,24,16,05,14.80
2017,10,24,16,06,14.70
2017,10,24,16,07,14.70
2017,10,24,16,08,14.60
2017,10,24,16,09,14.60
2017,10,24,16,10,14.60
2017,10,24,16,11,14.50
2017,10,24,16,12,14.50
2017,10,24,16,13,14.50
2017,10,24,16,14,14.50
2017,10,24,16,15,14.50
2017,10,24,16,16,14.50
2017,10,24,16,17,14.50
2017,10,24,16,18,14.50
2017,10,24,16,19,14.50
2017,10,24,16,20,14.50
2017,10,24,16,21,14.50
2017,10,24,16,22,14.50
2017,10,24,16,23,14.50
2017,10,24,16,24,14.50
2017,10,24,16,25,14.60
2017,10,24,16,26,14.60
2017,10,24,16,27,14.60
2017,10,24,16,28,14.60
2017,10,24,16,29,14.70
2017,10,24,16,30,14.70
2017,10,24,16,31,14.60
2017,10,24,16,32,14.60
2017,10,24,16,33,14.60
2017,10,24,16,34,14.60
2017,10,24,16,35,14.60
2017,10,24,16,36,14.50
2017,10,24,16,37,14.50
2017,10,24,16,38,14.50
2017,10,24,16,39,14.50
2017,10,24,16,40,14.40
2017,10,24,16,41,14.40
2017,10,24,16,42,14.40
2017,10,24,16,43,14.40
2017,10,24,16,44,14.40
2017,10,24,16,45,14.40
2017,10,24,16,46,14.40
2017,10,24,16,47,14.40
2017,10,24,16,48,14.30
2017,10,24,16,49,14.30
2017,10,24,16,50,14.30
2017,10,24,16,51,14.20
2017,10,24,16,52,14.20
2017,10,24,16,53,14.20
2017,10,24,16,54,14.30
2017,10,24,16,55,14.30
2017,10,24,16,56,14.30
2017,10,24,16,57,14.30
2017,10,24,16,58,14.30
2017,10,24,16,59,14.40
2017,10,24,17,00,14.40
2017,10,24,17,01,14.40
2017,10,24,17,02,14.40
2017,10,24,17,03,14.40
2017,10,24,17,04,14.40
2017,10,24,17,05,14.40
2017,10,24,17,06,14.40
2017,10,24,17,07,14.30
2017,10,24,17,08,14.30
2017,10,24,17,09,14.30
2017,10,24,17,10,14.20
2017,10,24,17,11,14.20
2017,10,24,17,12,14.10
2017,10,24,17,13,14.00
2017,10,24,17,14,13.90
2017,10,24,17,15,13.80
2017,10,24,17,16,13.70
2017,10,24,17,17,13.70
2017,10,24,17,18,13.60
2017,10,24,17,19,13.60
2017,10,24,17,20,13.50
2017,10,24,17,21,13.40
2017,10,24,17,22,13.30
2017,10,24,17,23,13.30
2017,10,24,17,24,13.20
2017,10,24,17,25,13.20
2017,10,24,17,26,13.20
2017,10,24,17,27,13.20
2017,10,24,17,28,13.20
2017,10,24,17,29,13.10
2017,10,24,17,30,13.10
2017,10,24,17,31,13.10
2017,10,24,17,32,13.10
2017,10,24,17,33,13.10
2017,10,24,17,34,13.10
2017,10,24,17,35,13.10
2017,10,24,17,36,13.10
2017,10,24,17,37,13.10
2017,10,24,17,38,13.20
2017,10,24,17,39,13.20
2017,10,24,17,40,13.20
2017,10,24,17,41,13.30